Regional Weather Roundup
Issued by NWS Charleston, SC

Current Version | Previous Version | Text Only | Print | Product List | Glossary Off
Versions: 1 2 3 4 5 6 7 8 9 10 11 12 13 14 15 16 17 18 19 20 21 22 23 24 25 26 27 28 29 30 31 32 33 34 35 36 37 38 39 40 41 42 43 44 45 46 47 48 49 50

000
ASUS42 KCHS 252328
RWRCHS

REGIONAL WEATHER ROUNDUP
NATIONAL WEATHER SERVICE CHARLESTON SC
700 PM EDT MON JUL 25 2016

NOTE: "FAIR" INDICATES FEW OR NO CLOUDS BELOW 12,000 FEET WITH NO
SIGNIFICANT WEATHER AND/OR OBSTRUCTIONS TO VISIBILITY.

NOT ALL STATIONS ARE QUALITY CONTROLLED. USE DATA WITH CAUTION...
ESPECIALLY DEWPOINT OBSERVATIONS.

SCZ027-030-031-034>040-042>050-260000-
...SOUTHEAST SOUTH CAROLINA...

CITY           SKY/WX    TMP DP  RH WIND       PRES   REMARKS
N CHARLESTON   MOSUNNY   88  70  55 S14       30.01S HX  93
WATERFRONT PRK   N/A     86  74  67 S9        30.00S HX  94
MOUNT PLEASANT FAIR      86  73  66 S10       30.02S HX  93
JOHNS ISLAND   FAIR      86  73  66 S12       30.03R HX  93
PINOPOLIS        N/A     91  72  52 VRB3      29.93R HX  98
MONCKS CORNER  FAIR      84  70  61 SW9       30.01R
SUMMERVILLE    FAIR      90  72  55 S6        30.02S HX  96
BEAUFORT MCAS  SUNNY     88  73  61 S10G16    30.01S HX  95
BEAUFORT ARPT  FAIR      86  73  66 S10       30.01S HX  93
HILTON HEAD IS MOSUNNY   91  75  59 S9G18     30.03S HX 102
WALTERBORO     CLEAR     90  70  51 S13       30.02R HX  95
ALLENDALE      FAIR      91  68  46 S15       29.99R HX  95

...SOUTHERN MIDLANDS AND PEE DEE...

CITY           SKY/WX    TMP DP  RH WIND       PRES   REMARKS
GEORGETOWN     FAIR      84  72  65 S7G16     30.03R
KINGSTREE      FAIR      88  70  55 S7        29.99R HX  92
ORANGEBURG     SUNNY     93  69  45 S9        29.98F HX  98
BARNWELL       NOT AVBL
AIKEN          FAIR      90  68  48 S12G17    30.02R HX  93
MANNING        FAIR      88  72  58 S8        29.99S HX  94
COLUMBIA       MOSUNNY   95  69  42 S12       29.96S HX 100
SUMTER         SUNNY     93  69  44 S9        29.95S HAZE    HX  98
FLORENCE       SUNNY     92  71  50 S8        29.98S HX  98
MYRTLE BEACH   NOT AVBL
N MYRTLE BEACH SUNNY     85  75  72 SW17      30.01S HX  93

$$

GAZ063-065-086>088-099>101-113>116-118-119-134>141-150-260000-
...SOUTHEAST GEORGIA...

CITY           SKY/WX    TMP DP  RH WIND       PRES   REMARKS
SAVANNAH ARPT  MOSUNNY   89  69  51 S16       30.01S HX  93
HUNTER AAF     SUNNY     87  76  68 S10       29.99S HX  97
FORT STEWART   SUNNY     89  71  54 SE9       29.98S HX  94
STATESBORO     SUNNY     91  71  53 SE7       30.00R HX  97
SYLVANIA       NOT AVBL
CLAXTON        FAIR      91  72  54 E5        29.99S HX  98

...CSRA...CENTRAL AND FAR SOUTHEAST GEORGIA...

CITY           SKY/WX    TMP DP  RH WIND       PRES   REMARKS
THOMSON        NOT AVBL
AUGUSTA-BUSH   SUNNY     95  66  38 S12       29.96S HX  98
AUGUSTA-DANIEL SUNNY     95  68  41 S12       29.98S HX  99
SWAINSBORO     FAIR      93  68  43 SE12      29.99R HX  97
VIDALIA        MOSUNNY   93  64  38 SE5       29.99S HX  95
EASTMAN        FAIR      94  48  20 SW8       30.00S HX  91
HAZLEHURST     FAIR      95  62  33 CALM      29.98S HX  95
ALMA           MOSUNNY   93  64  38 S8        29.99S HX  94
WAYCROSS       MOSUNNY   96  71  44 S9        30.00R HX 103
JESUP          FAIR      90  73  58 S7        30.01R HX  98
BAXLEY         FAIR      93  70  46 S6        29.99S HX  99
BRUNSWICK      SUNNY     88  75  66 SE7       30.03S HX  97
SAINT SIMONS   SUNNY     87  73  62 SE10      30.02S HX  94

$$

SCZ027-028-034-036>038-045-046-048>050-GAZ119-141-260000-
...LAKE AND SUPPLEMENTAL COASTAL OBSERVATIONS...

STATION/POSITION TIME  TEMP    WIND        PRES    WAVE   SWELL
                       AIR SEA DIR/SP/G            HT/PER HT/PER/DIR
                 (UTC) (F)     (DEG/KT/KT) (MB)    (FT/S) (FT/S/D)
WINYAH BAY       2200   87     190/ 11     1016.0
LAKE MURRAY      NOT AVBL
ACE BASIN NERRS  2200   88     160/  2     1016.0F
FORT PULASKI     2300   85 88                N/A
SAPELO ISLAND    2300   88     150/ 10     1016.0F

$$

ANZ835-935-AMZ111-154-330-350-352-354-370-450-454-472-260000-
...C-MAN AND BUOY OBSERVATIONS...

STATION/POSITION TIME  TEMP    WIND        PRES    WAVE   SWELL
                       AIR SEA DIR/SP/G            HT/PER HT/PER/DIR
                 (UTC) (F)     (DEG/KT/KT) (MB)    (FT/S) (FT/S/D)
BUOY 41004       2250   85 87  190/ 12/ 14 1016.4F   2/ 8   2/130/ 8
BUOY 41008       2250   85 87  160/ 12/ 14 1016.8F   2/ 9   2/100/ 9
FOLLY BEACH CMAN 2300   85     190/ 14/ 15 1017.0R
CAPERS NEARSHORE 2308   85 85  210/ 14/ 17 1016.5F
FRIPP NEARSHORE  2308   85 88  190/ 14/ 17 1016.0S


STATION/POSITION TIME  TEMP    WIND        PRES    WAVE   SWELL
                       AIR SEA DIR/SP/G            HT/PER HT/PER/DIR
                 (UTC) (F)     (DEG/KT/KT) (MB)    (FT/S) (FT/S/D)
5E ST. MARYS GA  2301      86                N/A     2/ 3
FRYING PAN BUOY  2300   85 86  190/ 14/ 16 1016.5S
BUOY 41025       2250   85 86  220/ 17/ 21 1015.6F   4/ 5   2/120/ 8
CAPE LOOKOUT NC  2300   85     220/ 10/ 15 1015.8R
BUOY 41002       2250   84 85  180/ 12/ 14 1018.2S   2/ 8   2/ 80/ 8
BUOY 41010       2220   85 87  160/  6/  8 1017.8S
ST AUGUSTINE FL  2300   83 87  160/ 16/ 17 1017.5F


$$



USA.gov is the U.S. government's official web portal to all federal, state and local government web resources and services.